Weather History for Casper, WY

Change the Weather History Date:

Thursday, September 5, 2013

  Actual Average Record
Temperature  
Mean Temperature 76 °F 63 °F  
Max Temperature 94 °F 80 °F 95 °F (1978)
Min Temperature 57 °F 46 °F 34 °F (1965)
Degree Days  
Heating Degree Days 0 4  
Month to date heating degree days 0 17  
Since 1 July heating degree days 0 63  
Cooling Degree Days 11 2  
Month to date cooling degree days 43 10  
Year to date cooling degree days 581 407  
Growing Degree Days 25 (Base 50)    
Moisture  
Dew Point 47 °F    
Average Humidity 45    
Maximum Humidity 72    
Minimum Humidity 18    
Precipitation  
Precipitation T in 0.03 in 0.24 in (1993)
Month to date precipitation 0.03 0.13  
Year to date precipitation 9.23 9.21  
Snow  
Snow 0.00 in 0.00 in - ()
Month to date snowfall 0.0 0.0  
Since 1 July snowfall 0.0 0.0  
Since 1 September snowfall 0.0 0.0  
Snow Depth 0.00 in    
Sea Level Pressure  
Sea Level Pressure 29.96 in    
Wind  
Wind Speed 10 mph (SW)    
Max Wind Speed 21 mph    
Max Gust Speed 28 mph    
Visibility 10 miles    
Events      
T = Trace of Precipitation, MM = Missing Value Source: NWS Daily Summary

Daily Weather History Graph

Daily Weather History Graph

Search for Another Location

Airport:

Trip Planner

Search our weather history database for the weather conditions in past years. The results will help you decide how hot, cold, wet, or windy it might be!

Date:

Astronomy

Sep. 05, 2013 Rise Set
Actual Time 6:35 AM MDT 7:33 PM MDT
Civil Twilight 6:06 AM MDT 8:01 PM MDT
Nautical Twilight 5:31 AM MDT 8:36 PM MDT
Astronomical Twilight 4:55 AM MDT 9:12 PM MDT
Moon 6:51 AM MDT (9/5) 7:23 PM MDT (9/5)
Length of Visible Light 13h 55m
Length of Day
12h 57m
New Moon, 0% of the Moon is Illuminated
Sep 5
New Moon
Sep 12
First Quarter
Sep 19
Full
Sep 26
Last Quarter
Oct 4
New

Hourly Weather History & Observations

Time (MDT) Temp. Dew Point Humidity Pressure Visibility Wind Dir Wind Speed Gust Speed Precip Events Conditions
12:53 AM 69.1 °F 50.0 °F 51% 29.99 in 10.0 mi West 9.2 mph - N/A   Partly Cloudy
1:53 AM 64.9 °F 50.0 °F 58% 29.98 in 10.0 mi West 5.8 mph - N/A   Clear
2:53 AM 63.0 °F 48.9 °F 60% 29.97 in 10.0 mi WNW 8.1 mph - N/A   Clear
3:53 AM 61.0 °F 48.9 °F 64% 30.00 in 10.0 mi West 4.6 mph - N/A   Clear
4:53 AM 57.0 °F 46.9 °F 69% 30.00 in 10.0 mi NNE 3.5 mph - N/A   Clear
5:53 AM 57.9 °F 48.9 °F 72% 30.01 in 10.0 mi NW 6.9 mph - N/A   Clear
6:53 AM 63.0 °F 48.0 °F 58% 30.01 in 10.0 mi WSW 12.7 mph - N/A   Clear
7:53 AM 72.0 °F 51.1 °F 48% 30.01 in 10.0 mi SSW 6.9 mph - N/A   Clear
8:53 AM 75.9 °F 50.0 °F 40% 30.02 in 10.0 mi South 15.0 mph - N/A   Clear
9:53 AM 80.1 °F 50.0 °F 35% 30.03 in 10.0 mi SSW 12.7 mph - N/A   Clear
10:53 AM 82.9 °F 48.9 °F 31% 30.03 in 10.0 mi SW 15.0 mph 21.9 mph N/A   Clear
11:53 AM 86.0 °F 48.0 °F 27% 29.99 in 10.0 mi WSW 9.2 mph - N/A   Clear
12:53 PM 90.0 °F 46.9 °F 23% 29.97 in 10.0 mi South 9.2 mph 17.3 mph N/A   Clear
1:53 PM 91.9 °F 44.1 °F 19% 29.95 in 10.0 mi SSW 15.0 mph 21.9 mph N/A   Clear
2:53 PM 91.9 °F 45.0 °F 20% 29.94 in 10.0 mi SW 13.8 mph 23.0 mph N/A   Clear
3:53 PM 91.9 °F 44.1 °F 19% 29.92 in 10.0 mi WSW 11.5 mph - N/A   Clear
4:53 PM 91.9 °F 43.0 °F 18% 29.91 in 10.0 mi SW 4.6 mph 18.4 mph N/A   Partly Cloudy
5:53 PM 91.9 °F 43.0 °F 18% 29.90 in 10.0 mi SW 10.4 mph 16.1 mph N/A   Clear
6:53 PM 89.1 °F 44.1 °F 21% 29.88 in 10.0 mi WSW 4.6 mph - N/A   Clear
7:53 PM 78.1 °F 46.0 °F 32% 29.89 in 10.0 mi South 4.6 mph - N/A   Clear
8:53 PM 77.0 °F 46.0 °F 33% 29.89 in 10.0 mi South 13.8 mph 17.3 mph N/A   Scattered Clouds
9:53 PM 81.0 °F 46.0 °F 29% 29.89 in 10.0 mi SSW 17.3 mph - N/A   Partly Cloudy
10:53 PM 78.1 °F 46.0 °F 32% 29.89 in 10.0 mi SSW 9.2 mph - 0.00 in   Clear
11:53 PM 75.9 °F 46.0 °F 35% 29.89 in 10.0 mi SW 9.2 mph - N/A   Clear